EZY98RJ LSGG-EGPH

Flight info

Callsign EZY98RJ
Flight time N/A
Altitude 38000
Route DIPIR T37 IBABA DCT TUTAX DCT OBURO DCT OKRIX DCT CLM DCT KOPOR DCT VESAN DCT RATUK DCT SOVAT L613 HALIF UN590 ABEVI UN601 INPIP
Aircraft A320/M-SDE3FGHIRWY/LB1

Departure

Time 2026-05-04 14:17
Airport Geneva International Airport (LSGG)

Arrival

Time N/A
Airport Edinburgh Airport (EGPH)
Time Latitude Longitude Altitude Speed Heading
2026-05-04 13:51 46.23425 6.10811 1400 ft 0 kts 135°
2026-05-04 13:55 46.23426 6.10811 1393 ft 0 kts 135°
2026-05-04 13:56 46.23426 6.10810 1393 ft 0 kts 135°
2026-05-04 14:06 46.23401 6.10844 1400 ft 4 kts 136°
2026-05-04 14:06 46.23390 6.10866 1397 ft 1 kts 117°
2026-05-04 14:07 46.23394 6.10895 1397 ft 13 kts 70°
2026-05-04 14:07 46.23463 6.11003 1396 ft 12 kts 46°
2026-05-04 14:07 46.23505 6.11067 1404 ft 6 kts 46°
2026-05-04 14:07 46.23522 6.11091 1397 ft 2 kts 45°
2026-05-04 14:08 46.23555 6.11139 1399 ft 7 kts 45°
2026-05-04 14:08 46.23598 6.11157 1402 ft 10 kts 341°
2026-05-04 14:08 46.23643 6.11106 1400 ft 8 kts 316°
2026-05-04 14:08 46.23699 6.11080 1387 ft 12 kts 21°
2026-05-04 14:09 46.23841 6.11280 1374 ft 15 kts 45°
2026-05-04 14:09 46.23914 6.11388 1373 ft 14 kts 45°
2026-05-04 14:10 46.24053 6.11592 1369 ft 13 kts 45°
2026-05-04 14:10 46.24125 6.11699 1366 ft 29 kts 45°
2026-05-04 14:10 46.24263 6.11901 1362 ft 21 kts 46°
2026-05-04 14:10 46.24354 6.12036 1366 ft 16 kts 44°
2026-05-04 14:11 46.24413 6.12120 1369 ft 8 kts 46°
2026-05-04 14:11 46.24490 6.12233 1372 ft 16 kts 46°
2026-05-04 14:11 46.24562 6.12339 1372 ft 13 kts 46°
2026-05-04 14:12 46.24626 6.12433 1368 ft 14 kts 46°
2026-05-04 14:12 46.24706 6.12551 1363 ft 17 kts 47°
2026-05-04 14:12 46.24853 6.12692 1364 ft 6 kts 17°
2026-05-04 14:13 46.24893 6.12710 1365 ft 4 kts 17°
2026-05-04 14:13 46.24904 6.12715 1366 ft 6 kts 17°
2026-05-04 14:13 46.24932 6.12728 1366 ft 0 kts 18°
2026-05-04 14:14 46.25015 6.12730 1369 ft 12 kts 335°
2026-05-04 14:15 46.25024 6.12689 1372 ft 1 kts 266°
2026-05-04 14:15 46.24994 6.12635 1372 ft 0 kts 227°
2026-05-04 14:16 46.24961 6.12586 1372 ft 37 kts 225°
2026-05-04 14:16 46.24559 6.11994 1372 ft 124 kts 225°
2026-05-04 14:17 46.22842 6.09536 2267 ft 200 kts 225°
2026-05-04 14:17 46.21805 6.08045 3096 ft 222 kts 225°
2026-05-04 14:17 46.19433 6.04531 4622 ft 259 kts 225°
2026-05-04 14:18 46.18169 6.02660 5652 ft 261 kts 224°
2026-05-04 14:18 46.15661 5.98888 7686 ft 265 kts 232°
2026-05-04 14:19 46.15489 5.93701 9700 ft 286 kts 297°
2026-05-04 14:19 46.16920 5.91641 10398 ft 309 kts 326°
2026-05-04 14:19 46.19054 5.90557 10797 ft 336 kts 346°
2026-05-04 14:19 46.21390 5.89935 11504 ft 345 kts 347°
2026-05-04 14:20 46.23765 5.89308 12340 ft 350 kts 347°
2026-05-04 14:20 46.26180 5.88672 13182 ft 354 kts 347°
2026-05-04 14:20 46.28589 5.87841 13975 ft 357 kts 340°
2026-05-04 14:21 46.33274 5.85227 15387 ft 364 kts 333°
2026-05-04 14:21 46.35591 5.83724 16104 ft 368 kts 332°
2026-05-04 14:21 46.37946 5.82194 16781 ft 373 kts 333°
2026-05-04 14:21 46.40354 5.80670 17473 ft 378 kts 332°
2026-05-04 14:22 46.42685 5.78917 18128 ft 381 kts 327°
2026-05-04 14:22 46.45009 5.77040 18785 ft 384 kts 327°
2026-05-04 14:22 46.47358 5.75159 19398 ft 387 kts 327°
2026-05-04 14:22 46.49722 5.73264 19987 ft 391 kts 327°
2026-05-04 14:23 46.54524 5.69396 21139 ft 398 kts 327°
2026-05-04 14:23 46.56931 5.67446 21701 ft 402 kts 327°
2026-05-04 14:23 46.59379 5.65454 22255 ft 406 kts 326°
2026-05-04 14:24 46.61860 5.63431 22794 ft 411 kts 326°
2026-05-04 14:24 46.64363 5.61387 23333 ft 415 kts 326°
2026-05-04 14:24 46.66893 5.59319 23837 ft 419 kts 326°
2026-05-04 14:24 46.69450 5.57237 24303 ft 423 kts 327°
2026-05-04 14:25 46.72034 5.55152 24773 ft 426 kts 327°
2026-05-04 14:25 46.77256 5.50920 25719 ft 432 kts 327°
2026-05-04 14:25 46.79875 5.48735 26163 ft 435 kts 326°
2026-05-04 14:26 46.82510 5.46494 26610 ft 438 kts 324°
2026-05-04 14:26 46.84943 5.43848 27037 ft 436 kts 314°
2026-05-04 14:26 46.87031 5.40656 27467 ft 433 kts 304°
2026-05-04 14:26 46.88732 5.37043 27881 ft 431 kts 295°
2026-05-04 14:27 46.90010 5.33107 28293 ft 428 kts 285°
2026-05-04 14:27 46.91104 5.29019 28725 ft 434 kts 289°
2026-05-04 14:27 46.92594 5.25128 29128 ft 443 kts 299°
2026-05-04 14:27 46.94547 5.21583 29525 ft 453 kts 309°
2026-05-04 14:28 46.96873 5.18426 29921 ft 459 kts 314°
2026-05-04 14:28 46.99252 5.15305 30272 ft 462 kts 313°
2026-05-04 14:28 47.01646 5.12147 30616 ft 464 kts 313°
2026-05-04 14:28 47.04018 5.09002 30973 ft 465 kts 313°
2026-05-04 14:29 47.08824 5.02603 31654 ft 468 kts 313°
2026-05-04 14:29 47.13635 4.96181 32618 ft 464 kts 313°
2026-05-04 14:30 47.16015 4.93008 33164 ft 461 kts 313°
2026-05-04 14:30 47.18386 4.89846 33699 ft 458 kts 312°
2026-05-04 14:30 47.23092 4.83558 34576 ft 455 kts 312°
2026-05-04 14:31 47.25430 4.80421 34976 ft 453 kts 312°
2026-05-04 14:31 47.30066 4.74182 35747 ft 450 kts 312°
2026-05-04 14:32 47.34674 4.67959 36444 ft 448 kts 312°
2026-05-04 14:32 47.36935 4.64903 36797 ft 446 kts 312°
2026-05-04 14:32 47.39254 4.61772 37164 ft 445 kts 312°
2026-05-04 14:32 47.41495 4.58744 37525 ft 443 kts 312°
2026-05-04 14:33 47.43773 4.55661 37897 ft 443 kts 313°
2026-05-04 14:33 47.48297 4.49531 37969 ft 440 kts 312°
2026-05-04 14:34 47.52813 4.43393 37969 ft 440 kts 313°
2026-05-04 14:34 47.57307 4.37245 37969 ft 440 kts 312°
2026-05-04 14:35 47.61792 4.31095 37962 ft 439 kts 312°
2026-05-04 14:35 47.66008 4.24609 37964 ft 432 kts 301°
2026-05-04 14:36 47.69371 4.17259 37980 ft 431 kts 299°
2026-05-04 14:36 47.72726 4.09879 37963 ft 432 kts 299°